date,time,SUV Intensity [MED/Hr],UV Index,Daily total [MED],Since Last [MED]
06/03/2022,00:05:25,0.000,0.0,0.0,0.0
06/03/2022,00:06:25,-0.001,0.0,0.0,0.0
06/03/2022,00:07:25,0.000,0.0,0.0,0.0
06/03/2022,00:08:25,0.000,0.0,0.0,0.0
06/03/2022,00:09:25,0.001,0.0,0.0,0.0
06/03/2022,00:10:25,0.000,0.0,0.0,0.0
06/03/2022,00:11:25,0.000,0.0,0.0,0.0
06/03/2022,00:12:25,0.000,0.0,0.0,0.0
06/03/2022,00:13:25,-0.001,0.0,0.0,0.0
06/03/2022,00:14:34,0.000,0.0,0.0,0.0
06/03/2022,00:15:25,0.001,0.0,0.0,0.0
06/03/2022,00:16:25,-0.001,0.0,0.0,0.0
06/03/2022,00:17:33,0.000,0.0,0.0,0.0
06/03/2022,00:18:25,0.000,0.0,0.0,0.0
06/03/2022,00:19:25,0.000,0.0,0.0,0.0
06/03/2022,00:20:25,0.000,0.0,0.0,0.0
06/03/2022,00:21:24,-0.001,0.0,0.0,0.0
06/03/2022,00:22:25,-0.001,0.0,0.0,0.0
06/03/2022,00:23:25,-0.000,0.0,0.0,0.0
06/03/2022,00:24:25,0.000,0.0,0.0,0.0
06/03/2022,00:25:25,0.001,0.0,0.0,0.0
06/03/2022,00:26:25,0.000,0.0,0.0,0.0
06/03/2022,00:27:25,0.000,0.0,0.0,0.0
06/03/2022,00:28:33,0.001,0.0,0.0,0.0
06/03/2022,00:29:25,0.000,0.0,0.0,0.0
06/03/2022,00:30:26,0.000,0.0,0.0,0.0
06/03/2022,00:31:25,0.001,0.0,0.0,0.0
06/03/2022,00:32:25,0.000,0.0,0.0,0.0
06/03/2022,00:33:25,0.000,0.0,0.0,0.0
06/03/2022,00:34:25,0.000,0.0,0.0,0.0
06/03/2022,00:35:25,0.000,0.0,0.0,0.0
06/03/2022,00:36:25,0.001,0.0,0.0,0.0
06/03/2022,00:37:25,-0.001,0.0,0.0,0.0
06/03/2022,00:38:25,0.000,0.0,0.0,0.0
06/03/2022,00:39:25,0.001,0.0,0.0,0.0
06/03/2022,00:40:25,0.000,0.0,0.0,0.0
06/03/2022,00:41:25,0.001,0.0,0.0,0.0
06/03/2022,00:42:27,0.000,0.0,0.0,0.0
06/03/2022,00:43:25,-0.001,0.0,0.0,0.0
06/03/2022,00:44:25,0.000,0.0,0.0,0.0
06/03/2022,00:45:25,0.000,0.0,0.0,0.0
06/03/2022,00:46:25,-0.001,0.0,0.0,0.0
06/03/2022,00:47:25,0.000,0.0,0.0,0.0
06/03/2022,00:48:25,0.000,0.0,0.0,0.0
06/03/2022,00:49:25,0.001,0.0,0.0,0.0
06/03/2022,00:50:26,0.001,0.0,0.0,0.0
06/03/2022,00:51:25,-0.000,0.0,0.0,0.0
06/03/2022,00:52:17,-0.000,0.0,0.0,0.0
06/03/2022,00:53:34,0.000,0.0,0.0,0.0
06/03/2022,00:54:24,0.000,0.0,0.0,0.0
06/03/2022,00:55:25,0.000,0.0,0.0,0.0
06/03/2022,00:56:25,0.000,0.0,0.0,0.0
06/03/2022,00:57:25,0.000,0.0,0.0,0.0
06/03/2022,00:58:25,0.000,0.0,0.0,0.0
06/03/2022,00:59:25,-0.001,0.0,0.0,0.0
06/03/2022,01:00:25,0.000,0.0,0.0,0.0
06/03/2022,01:01:26,0.000,0.0,0.0,0.0
06/03/2022,01:02:25,-0.000,0.0,0.0,0.0
06/03/2022,01:03:25,0.000,0.0,0.0,0.0
06/03/2022,01:04:25,-0.001,0.0,0.0,0.0
06/03/2022,01:05:25,-0.000,0.0,0.0,0.0
06/03/2022,01:06:25,0.000,0.0,0.0,0.0
06/03/2022,01:07:33,-0.001,0.0,0.0,0.0
06/03/2022,01:08:25,0.000,0.0,0.0,0.0
06/03/2022,01:09:25,0.000,0.0,0.0,0.0
06/03/2022,01:10:25,0.000,0.0,0.0,0.0
06/03/2022,01:11:25,0.000,0.0,0.0,0.0
06/03/2022,01:12:25,0.001,0.0,0.0,0.0
06/03/2022,01:13:25,0.001,0.0,0.0,0.0
06/03/2022,01:14:25,0.000,0.0,0.0,0.0
06/03/2022,01:15:25,0.000,0.0,0.0,0.0
06/03/2022,01:16:25,0.001,0.0,0.0,0.0
06/03/2022,01:17:34,0.000,0.0,0.0,0.0
06/03/2022,01:18:25,0.000,0.0,0.0,0.0
06/03/2022,01:19:26,0.000,0.0,0.0,0.0
06/03/2022,01:20:27,0.000,0.0,0.0,0.0
06/03/2022,01:21:25,0.000,0.0,0.0,0.0
06/03/2022,01:22:25,0.000,0.0,0.0,0.0
06/03/2022,01:23:25,0.000,0.0,0.0,0.0
06/03/2022,01:24:26,0.000,0.0,0.0,0.0
06/03/2022,01:25:34,0.001,0.0,0.0,0.0
06/03/2022,01:26:25,0.000,0.0,0.0,0.0
06/03/2022,01:27:25,0.001,0.0,0.0,0.0
06/03/2022,01:28:34,0.001,0.0,0.0,0.0
06/03/2022,01:29:25,0.001,0.0,0.0,0.0
06/03/2022,01:30:25,0.000,0.0,0.0,0.0
06/03/2022,01:31:25,0.000,0.0,0.0,0.0
06/03/2022,01:32:25,0.001,0.0,0.0,0.0
06/03/2022,01:33:25,0.000,0.0,0.0,0.0
06/03/2022,01:34:25,0.001,0.0,0.0,0.0
06/03/2022,01:35:25,-0.000,0.0,0.0,0.0
06/03/2022,01:36:25,0.000,0.0,0.0,0.0
06/03/2022,01:37:25,0.000,0.0,0.0,0.0
06/03/2022,01:38:25,0.000,0.0,0.0,0.0
06/03/2022,01:39:33,0.000,0.0,0.0,0.0
06/03/2022,01:40:25,0.000,0.0,0.0,0.0
06/03/2022,01:41:25,0.000,0.0,0.0,0.0
06/03/2022,01:42:25,0.000,0.0,0.0,0.0
06/03/2022,01:43:25,0.000,0.0,0.0,0.0
06/03/2022,01:44:25,0.000,0.0,0.0,0.0
06/03/2022,01:45:25,0.001,0.0,0.0,0.0
06/03/2022,01:46:18,0.000,0.0,0.0,0.0
06/03/2022,01:47:26,-0.000,0.0,0.0,0.0
06/03/2022,01:48:25,0.000,0.0,0.0,0.0
06/03/2022,01:49:34,0.001,0.0,0.0,0.0
06/03/2022,01:50:36,0.000,0.0,0.0,0.0
06/03/2022,01:52:26,0.000,0.0,0.0,0.0
06/03/2022,01:53:25,-0.001,0.0,0.0,0.0
06/03/2022,01:54:25,0.000,0.0,0.0,0.0
06/03/2022,01:55:25,0.000,0.0,0.0,0.0
06/03/2022,01:56:26,0.001,0.0,0.0,0.0
06/03/2022,01:57:34,-0.000,0.0,0.0,0.0
06/03/2022,01:58:25,-0.001,0.0,0.0,0.0
06/03/2022,01:59:25,0.001,0.0,0.0,0.0
06/03/2022,02:00:26,-0.000,0.0,0.0,0.0
06/03/2022,02:01:25,0.000,0.0,0.0,0.0
06/03/2022,02:02:25,0.000,0.0,0.0,0.0
06/03/2022,02:03:34,0.000,0.0,0.0,0.0
06/03/2022,02:04:23,0.001,0.0,0.0,0.0
06/03/2022,02:05:25,0.000,0.0,0.0,0.0
06/03/2022,02:06:25,0.000,0.0,0.0,0.0
06/03/2022,02:07:26,0.001,0.0,0.0,0.0
06/03/2022,02:08:25,0.000,0.0,0.0,0.0
06/03/2022,02:09:25,0.000,0.0,0.0,0.0
06/03/2022,02:10:25,0.000,0.0,0.0,0.0
06/03/2022,02:11:33,0.001,0.0,0.0,0.0
06/03/2022,02:12:26,0.001,0.0,0.0,0.0
06/03/2022,02:13:25,-0.000,0.0,0.0,0.0
06/03/2022,02:14:25,0.000,0.0,0.0,0.0
06/03/2022,02:15:25,0.001,0.0,0.0,0.0
06/03/2022,02:16:26,0.002,0.0,0.0,0.0
06/03/2022,02:17:26,0.002,0.0,0.0,0.0
06/03/2022,02:18:26,0.001,0.0,0.0,0.0
06/03/2022,02:19:26,0.000,0.0,0.0,0.0
06/03/2022,02:20:25,0.002,0.0,0.0,0.0
06/03/2022,02:21:34,0.001,0.0,0.0,0.0
06/03/2022,02:22:25,0.000,0.0,0.0,0.0
06/03/2022,02:23:26,0.000,0.0,0.0,0.0
06/03/2022,02:24:26,0.001,0.0,0.0,0.0
06/03/2022,02:25:17,0.001,0.0,0.0,0.0
06/03/2022,02:26:26,0.001,0.0,0.0,0.0
06/03/2022,02:27:25,0.001,0.0,0.0,0.0
06/03/2022,02:28:25,0.001,0.0,0.0,0.0
06/03/2022,02:29:33,0.001,0.0,0.0,0.0
06/03/2022,02:30:26,0.001,0.0,0.0,0.0
06/03/2022,02:31:27,0.001,0.0,0.0,0.0
06/03/2022,02:32:34,0.001,0.0,0.0,0.0
06/03/2022,02:33:25,0.000,0.0,0.0,0.0
06/03/2022,02:34:25,0.001,0.0,0.0,0.0
06/03/2022,02:35:26,0.000,0.0,0.0,0.0
06/03/2022,02:36:26,0.000,0.0,0.0,0.0
06/03/2022,02:37:25,-0.000,0.0,0.0,0.0
06/03/2022,02:38:25,0.001,0.0,0.0,0.0
06/03/2022,02:39:25,0.001,0.0,0.0,0.0
06/03/2022,02:40:26,0.001,0.0,0.0,0.0
06/03/2022,02:41:25,0.001,0.0,0.0,0.0
06/03/2022,02:42:34,0.001,0.0,0.0,0.0
06/03/2022,02:43:25,0.001,0.0,0.0,0.0
06/03/2022,02:44:25,-0.000,0.0,0.0,0.0
06/03/2022,02:45:25,0.001,0.0,0.0,0.0
06/03/2022,02:46:25,0.001,0.0,0.0,0.0
06/03/2022,02:47:26,0.001,0.0,0.0,0.0
06/03/2022,02:48:25,0.000,0.0,0.0,0.0
06/03/2022,02:49:26,0.001,0.0,0.0,0.0
06/03/2022,02:50:34,0.001,0.0,0.0,0.0
06/03/2022,02:51:25,0.001,0.0,0.0,0.0
06/03/2022,02:52:26,0.001,0.0,0.0,0.0
06/03/2022,02:53:26,0.000,0.0,0.0,0.0
06/03/2022,02:54:26,0.001,0.0,0.0,0.0
06/03/2022,02:55:25,0.002,0.0,0.0,0.0
06/03/2022,02:56:25,0.001,0.0,0.0,0.0
06/03/2022,02:57:25,0.000,0.0,0.0,0.0
06/03/2022,02:58:25,0.000,0.0,0.0,0.0
06/03/2022,02:59:26,0.001,0.0,0.0,0.0
06/03/2022,03:00:34,0.001,0.0,0.0,0.0
06/03/2022,03:01:25,0.000,0.0,0.0,0.0
06/03/2022,03:02:25,0.002,0.0,0.0,0.0
06/03/2022,03:03:25,0.001,0.0,0.0,0.0
06/03/2022,03:04:25,0.001,0.0,0.0,0.0
06/03/2022,03:05:26,-0.000,0.0,0.0,0.0
06/03/2022,03:06:26,0.001,0.0,0.0,0.0
06/03/2022,03:07:25,0.001,0.0,0.0,0.0
06/03/2022,03:08:25,0.002,0.0,0.0,0.0
06/03/2022,03:09:25,0.001,0.0,0.0,0.0
06/03/2022,03:10:26,0.002,0.0,0.0,0.0
06/03/2022,03:11:34,0.001,0.0,0.0,0.0
06/03/2022,03:12:25,0.002,0.0,0.0,0.0
06/03/2022,03:13:25,-0.000,0.0,0.0,0.0
06/03/2022,03:14:26,0.001,0.0,0.0,0.0
06/03/2022,03:15:25,0.001,0.0,0.0,0.0
06/03/2022,03:16:25,0.000,0.0,0.0,0.0
06/03/2022,03:17:26,0.001,0.0,0.0,0.0
06/03/2022,03:18:26,0.001,0.0,0.0,0.0
06/03/2022,03:19:25,0.001,0.0,0.0,0.0
06/03/2022,03:20:25,0.001,0.0,0.0,0.0
06/03/2022,03:21:26,0.001,0.0,0.0,0.0
06/03/2022,03:22:26,0.002,0.0,0.0,0.0
06/03/2022,03:23:25,0.001,0.0,0.0,0.0
06/03/2022,03:24:25,0.001,0.0,0.0,0.0
06/03/2022,03:25:26,0.001,0.0,0.0,0.0
06/03/2022,03:26:25,0.002,0.0,0.0,0.0
06/03/2022,03:27:17,0.002,0.0,0.0,0.0
06/03/2022,03:28:39,0.001,0.0,0.0,0.0
06/03/2022,03:30:27,0.000,0.0,0.0,0.0
06/03/2022,03:31:25,0.001,0.0,0.0,0.0
06/03/2022,03:32:26,0.001,0.0,0.0,0.0
06/03/2022,03:33:25,0.001,0.0,0.0,0.0
06/03/2022,03:34:25,0.000,0.0,0.0,0.0
06/03/2022,03:35:26,0.000,0.0,0.0,0.0
06/03/2022,03:36:34,0.002,0.0,0.0,0.0
06/03/2022,03:37:25,0.001,0.0,0.0,0.0
06/03/2022,03:38:25,0.001,0.0,0.0,0.0
06/03/2022,03:39:26,0.001,0.0,0.0,0.0
06/03/2022,03:40:26,0.001,0.0,0.0,0.0
06/03/2022,03:41:25,0.000,0.0,0.0,0.0
06/03/2022,03:42:26,-0.001,0.0,0.0,0.0
06/03/2022,03:43:26,0.001,0.0,0.0,0.0
06/03/2022,03:44:25,-0.000,0.0,0.0,0.0
06/03/2022,03:45:25,0.001,0.0,0.0,0.0
06/03/2022,03:46:34,0.001,0.0,0.0,0.0
06/03/2022,03:47:34,0.000,0.0,0.0,0.0
06/03/2022,03:48:26,0.001,0.0,0.0,0.0
06/03/2022,03:49:25,0.001,0.0,0.0,0.0
06/03/2022,03:50:26,0.001,0.0,0.0,0.0
06/03/2022,03:51:26,0.001,0.0,0.0,0.0
06/03/2022,03:52:26,0.000,0.0,0.0,0.0
06/03/2022,03:53:25,0.000,0.0,0.0,0.0
06/03/2022,03:54:26,0.001,0.0,0.0,0.0
06/03/2022,03:55:25,0.001,0.0,0.0,0.0
06/03/2022,03:56:17,0.001,0.0,0.0,0.0
06/03/2022,03:57:26,0.000,0.0,0.0,0.0
06/03/2022,03:58:26,0.001,0.0,0.0,0.0
06/03/2022,03:59:25,0.001,0.0,0.0,0.0
06/03/2022,04:00:25,0.001,0.0,0.0,0.0
06/03/2022,04:01:25,-0.000,0.0,0.0,0.0
06/03/2022,04:02:25,0.001,0.0,0.0,0.0
06/03/2022,04:03:26,0.001,0.0,0.0,0.0
06/03/2022,04:04:25,-0.000,0.0,0.0,0.0
06/03/2022,04:05:25,0.001,0.0,0.0,0.0
06/03/2022,04:06:25,0.002,0.0,0.0,0.0
06/03/2022,04:07:25,0.001,0.0,0.0,0.0
06/03/2022,04:08:25,0.000,0.0,0.0,0.0
06/03/2022,04:09:26,0.000,0.0,0.0,0.0
06/03/2022,04:10:25,0.001,0.0,0.0,0.0
06/03/2022,04:11:26,0.001,0.0,0.0,0.0
06/03/2022,04:12:27,0.001,0.0,0.0,0.0
06/03/2022,04:13:26,0.001,0.0,0.0,0.0
06/03/2022,04:14:25,0.001,0.0,0.0,0.0
06/03/2022,04:15:34,0.000,0.0,0.0,0.0
06/03/2022,04:16:25,0.001,0.0,0.0,0.0
06/03/2022,04:17:25,-0.000,0.0,0.0,0.0
06/03/2022,04:18:26,-0.001,0.0,0.0,0.0
06/03/2022,04:19:33,0.001,0.0,0.0,0.0
06/03/2022,04:20:25,0.001,0.0,0.0,0.0
06/03/2022,04:21:26,0.001,0.0,0.0,0.0
06/03/2022,04:22:34,0.001,0.0,0.0,0.0
06/03/2022,04:23:26,0.000,0.0,0.0,0.0
06/03/2022,04:24:26,0.001,0.0,0.0,0.0
06/03/2022,04:25:25,0.001,0.0,0.0,0.0
06/03/2022,04:26:25,0.001,0.0,0.0,0.0
06/03/2022,04:27:26,0.001,0.0,0.0,0.0
06/03/2022,04:28:26,0.001,0.0,0.0,0.0
06/03/2022,04:29:26,0.000,0.0,0.0,0.0
06/03/2022,04:30:25,0.001,0.0,0.0,0.0
06/03/2022,04:31:25,0.001,0.0,0.0,0.0
06/03/2022,04:32:34,0.000,0.0,0.0,0.0
06/03/2022,04:33:34,0.002,0.0,0.0,0.0
06/03/2022,04:34:26,0.001,0.0,0.0,0.0
06/03/2022,04:35:25,0.001,0.0,0.0,0.0
06/03/2022,04:36:25,0.001,0.0,0.0,0.0
06/03/2022,04:37:25,0.001,0.0,0.0,0.0
06/03/2022,04:38:25,0.001,0.0,0.0,0.0
06/03/2022,04:39:25,0.000,0.0,0.0,0.0
06/03/2022,04:40:34,0.001,0.0,0.0,0.0
06/03/2022,04:41:26,0.001,0.0,0.0,0.0
06/03/2022,04:42:25,0.001,0.0,0.0,0.0
06/03/2022,04:43:26,-0.000,0.0,0.0,0.0
06/03/2022,04:44:26,0.001,0.0,0.0,0.0
06/03/2022,04:45:26,0.001,0.0,0.0,0.0
06/03/2022,04:46:25,0.000,0.0,0.0,0.0
06/03/2022,04:47:26,0.000,0.0,0.0,0.0
06/03/2022,04:48:26,0.001,0.0,0.0,0.0
06/03/2022,04:49:25,0.001,0.0,0.0,0.0
06/03/2022,04:50:26,0.002,0.0,0.0,0.0
06/03/2022,04:51:26,0.001,0.0,0.0,0.0
06/03/2022,04:53:26,0.001,0.0,0.0,0.0
06/03/2022,04:54:25,0.001,0.0,0.0,0.0
06/03/2022,04:55:26,0.001,0.0,0.0,0.0
06/03/2022,04:56:26,-0.000,0.0,0.0,0.0
06/03/2022,04:57:25,-0.000,0.0,0.0,0.0
06/03/2022,04:58:25,0.000,0.0,0.0,0.0
06/03/2022,04:59:26,0.000,0.0,0.0,0.0
06/03/2022,05:00:26,0.000,0.0,0.0,0.0
06/03/2022,05:01:34,0.000,0.0,0.0,0.0
06/03/2022,05:02:25,0.001,0.0,0.0,0.0
06/03/2022,05:03:25,0.001,0.0,0.0,0.0
06/03/2022,05:04:26,0.001,0.0,0.0,0.0
06/03/2022,05:05:26,0.001,0.0,0.0,0.0
06/03/2022,05:06:25,0.001,0.0,0.0,0.0
06/03/2022,05:07:26,0.001,0.0,0.0,0.0
06/03/2022,05:08:26,0.000,0.0,0.0,0.0
06/03/2022,05:09:25,0.001,0.0,0.0,0.0
06/03/2022,05:10:25,0.001,0.0,0.0,0.0
06/03/2022,05:11:26,-0.000,0.0,0.0,0.0
06/03/2022,05:12:25,0.000,0.0,0.0,0.0
06/03/2022,05:13:26,0.000,0.0,0.0,0.0
06/03/2022,05:14:25,0.000,0.0,0.0,0.0
06/03/2022,05:15:25,0.000,0.0,0.0,0.0
06/03/2022,05:16:34,0.001,0.0,0.0,0.0
06/03/2022,05:17:26,0.001,0.0,0.0,0.0
06/03/2022,05:18:25,0.001,0.0,0.0,0.0
06/03/2022,05:19:26,-0.000,0.0,0.0,0.0
06/03/2022,05:20:26,0.000,0.0,0.0,0.0
06/03/2022,05:21:25,-0.000,0.0,0.0,0.0
06/03/2022,05:22:26,-0.000,0.0,0.0,0.0
06/03/2022,05:23:26,0.000,0.0,0.0,0.0
06/03/2022,05:24:27,0.000,0.0,0.0,0.0
06/03/2022,05:25:26,0.000,0.0,0.0,0.0
06/03/2022,05:26:34,0.001,0.0,0.0,0.0
06/03/2022,05:27:26,-0.000,0.0,0.0,0.0
06/03/2022,05:28:25,0.000,0.0,0.0,0.0
06/03/2022,05:29:25,0.001,0.0,0.0,0.0
06/03/2022,05:30:26,0.001,0.0,0.0,0.0
06/03/2022,05:31:25,0.000,0.0,0.0,0.0
06/03/2022,05:32:25,0.001,0.0,0.0,0.0
06/03/2022,05:33:25,-0.000,0.0,0.0,0.0
06/03/2022,05:34:25,0.000,0.0,0.0,0.0
06/03/2022,05:35:26,0.001,0.0,0.0,0.0
06/03/2022,05:36:25,0.000,0.0,0.0,0.0
06/03/2022,05:37:33,0.001,0.0,0.0,0.0
06/03/2022,05:38:26,0.000,0.0,0.0,0.0
06/03/2022,05:39:26,0.001,0.0,0.0,0.0
06/03/2022,05:40:25,-0.000,0.0,0.0,0.0
06/03/2022,05:41:26,0.000,0.0,0.0,0.0
06/03/2022,05:42:26,0.000,0.0,0.0,0.0
06/03/2022,05:43:25,-0.000,0.0,0.0,0.0
06/03/2022,05:44:26,0.001,0.0,0.0,0.0
06/03/2022,05:45:25,0.001,0.0,0.0,0.0
06/03/2022,05:46:26,0.000,0.0,0.0,0.0
06/03/2022,05:47:26,0.000,0.0,0.0,0.0
06/03/2022,05:48:25,-0.000,0.0,0.0,0.0
06/03/2022,05:49:25,0.000,0.0,0.0,0.0
06/03/2022,05:50:26,0.001,0.0,0.0,0.0
06/03/2022,05:51:26,0.000,0.0,0.0,0.0
06/03/2022,05:52:26,0.000,0.0,0.0,0.0
06/03/2022,05:53:26,0.000,0.0,0.0,0.0
06/03/2022,05:54:25,0.001,0.0,0.0,0.0
06/03/2022,05:55:34,0.001,0.0,0.0,0.0
06/03/2022,05:56:26,0.001,0.0,0.0,0.0
06/03/2022,05:57:26,0.000,0.0,0.0,0.0
06/03/2022,05:58:25,0.001,0.0,0.0,0.0
06/03/2022,05:59:26,-0.001,0.0,0.0,0.0
06/03/2022,06:00:26,0.001,0.0,0.0,0.0
06/03/2022,06:01:26,0.000,0.0,0.0,0.0
06/03/2022,06:02:34,0.000,0.0,0.0,0.0
06/03/2022,06:03:25,0.000,0.0,0.0,0.0
06/03/2022,06:04:26,-0.000,0.0,0.0,0.0
06/03/2022,06:05:26,0.001,0.0,0.0,0.0
06/03/2022,06:06:26,0.001,0.0,0.0,0.0
06/03/2022,06:07:26,0.000,0.0,0.0,0.0
06/03/2022,06:08:25,0.000,0.0,0.0,0.0
06/03/2022,06:09:26,0.001,0.0,0.0,0.0
06/03/2022,06:10:26,-0.001,0.0,0.0,0.0
06/03/2022,06:11:26,0.001,0.0,0.0,0.0
06/03/2022,06:12:25,0.000,0.0,0.0,0.0
06/03/2022,06:13:26,0.000,0.0,0.0,0.0
06/03/2022,06:14:26,0.000,0.0,0.0,0.0
06/03/2022,06:15:25,0.001,0.0,0.0,0.0
06/03/2022,06:16:34,0.000,0.0,0.0,0.0
06/03/2022,06:17:26,0.000,0.0,0.0,0.0
06/03/2022,06:18:26,0.000,0.0,0.0,0.0
06/03/2022,06:19:26,0.001,0.0,0.0,0.0
06/03/2022,06:20:26,0.001,0.0,0.0,0.0
06/03/2022,06:21:25,-0.000,0.0,0.0,0.0
06/03/2022,06:22:26,0.001,0.0,0.0,0.0
06/03/2022,06:23:25,0.000,0.0,0.0,0.0
06/03/2022,06:24:25,0.000,0.0,0.0,0.0
06/03/2022,06:25:26,0.000,0.0,0.0,0.0
06/03/2022,06:26:26,0.000,0.0,0.0,0.0
06/03/2022,06:27:26,0.000,0.0,0.0,0.0
06/03/2022,06:28:25,0.001,0.0,0.0,0.0
06/03/2022,06:29:26,-0.000,0.0,0.0,0.0
06/03/2022,06:30:26,-0.000,0.0,0.0,0.0
06/03/2022,06:31:34,0.000,0.0,0.0,0.0
06/03/2022,06:32:26,0.001,0.0,0.0,0.0
06/03/2022,06:33:25,0.000,0.0,0.0,0.0
06/03/2022,06:34:25,0.000,0.0,0.0,0.0
06/03/2022,06:35:26,-0.001,0.0,0.0,0.0
06/03/2022,06:36:26,0.001,0.0,0.0,0.0
06/03/2022,06:37:25,0.001,0.0,0.0,0.0
06/03/2022,06:38:26,0.000,0.0,0.0,0.0
06/03/2022,06:39:26,0.001,0.0,0.0,0.0
06/03/2022,06:40:25,0.001,0.0,0.0,0.0
06/03/2022,06:41:34,0.000,0.0,0.0,0.0
06/03/2022,06:42:25,0.000,0.0,0.0,0.0
06/03/2022,06:43:26,0.001,0.0,0.0,0.0
06/03/2022,06:44:26,0.001,0.0,0.0,0.0
06/03/2022,06:45:26,0.001,0.0,0.0,0.0
06/03/2022,06:46:26,0.002,0.0,0.0,0.0
06/03/2022,06:47:25,0.001,0.0,0.0,0.0
06/03/2022,06:48:25,0.000,0.0,0.0,0.0
06/03/2022,06:49:26,0.001,0.0,0.0,0.0
06/03/2022,06:50:26,0.000,0.0,0.0,0.0
06/03/2022,06:51:25,0.001,0.0,0.0,0.0
06/03/2022,06:52:34,0.002,0.0,0.0,0.0
06/03/2022,06:53:25,0.001,0.0,0.0,0.0
06/03/2022,06:54:26,0.001,0.0,0.0,0.0
06/03/2022,06:55:26,0.002,0.0,0.0,0.0
06/03/2022,06:56:26,0.003,0.0,0.0,0.0
06/03/2022,06:57:25,0.001,0.0,0.0,0.0
06/03/2022,06:58:26,0.001,0.0,0.0,0.0
06/03/2022,06:59:26,0.002,0.0,0.0,0.0
06/03/2022,07:00:34,0.002,0.0,0.0,0.0
06/03/2022,07:01:25,0.003,0.0,0.0,0.0
06/03/2022,07:02:26,0.001,0.0,0.0,0.0
06/03/2022,07:03:26,0.002,0.0,0.0,0.0
06/03/2022,07:04:26,0.002,0.0,0.0,0.0
06/03/2022,07:05:26,0.002,0.0,0.0,0.0
06/03/2022,07:06:26,0.002,0.0,0.0,0.0
06/03/2022,07:07:25,0.002,0.0,0.0,0.0
06/03/2022,07:08:26,0.002,0.0,0.0,0.0
06/03/2022,07:09:26,0.002,0.0,0.0,0.0
06/03/2022,07:10:26,0.004,0.0,0.0,0.0
06/03/2022,07:11:26,0.002,0.0,0.0,0.0
06/03/2022,07:12:26,0.003,0.0,0.0,0.0
06/03/2022,07:13:25,0.003,0.0,0.0,0.0
06/03/2022,07:14:26,0.003,0.0,0.0,0.0
06/03/2022,07:15:26,0.003,0.0,0.0,0.0
06/03/2022,07:16:25,0.005,0.0,0.0,0.0
06/03/2022,07:17:26,0.006,0.0,0.0,0.0
06/03/2022,07:18:26,0.006,0.0,0.0,0.0
06/03/2022,07:19:25,0.007,0.0,0.0,0.0
06/03/2022,07:20:25,0.007,0.0,0.0,0.0
06/03/2022,07:21:35,0.007,0.0,0.0,0.0
06/03/2022,07:22:24,0.007,0.0,0.001,0.001
06/03/2022,07:23:26,0.008,0.0,0.001,0.0
06/03/2022,07:24:34,0.009,0.0,0.001,0.0
06/03/2022,07:25:25,0.010,0.0,0.001,0.0
06/03/2022,07:26:26,0.010,0.0,0.001,0.0
06/03/2022,07:27:26,0.010,0.0,0.001,0.0
06/03/2022,07:28:26,0.010,0.0,0.001,0.0
06/03/2022,07:29:26,0.011,0.0,0.002,0.001
06/03/2022,07:30:25,0.011,0.0,0.002,0.0
06/03/2022,07:31:25,0.009,0.0,0.002,0.0
06/03/2022,07:32:34,0.010,0.0,0.002,0.0
06/03/2022,07:33:34,0.010,0.0,0.002,0.0
06/03/2022,07:34:26,0.009,0.0,0.002,0.0
06/03/2022,07:35:26,0.010,0.0,0.003,0.001
06/03/2022,07:36:26,0.010,0.0,0.003,0.0
06/03/2022,07:37:26,0.010,0.0,0.003,0.0
06/03/2022,07:38:26,0.009,0.0,0.003,0.0
06/03/2022,07:39:26,0.010,0.0,0.003,0.0
06/03/2022,07:40:26,0.011,0.0,0.003,0.0
06/03/2022,07:41:26,0.011,0.0,0.004,0.001
06/03/2022,07:42:34,0.011,0.0,0.004,0.0
06/03/2022,07:43:32,0.011,0.0,0.004,0.0
06/03/2022,07:44:25,0.011,0.0,0.004,0.0
06/03/2022,07:45:26,0.011,0.0,0.004,0.0
06/03/2022,07:46:25,0.011,0.0,0.004,0.0
06/03/2022,07:47:26,0.011,0.0,0.005,0.001
06/03/2022,07:48:26,0.011,0.0,0.005,0.0
06/03/2022,07:49:26,0.011,0.0,0.005,0.0
06/03/2022,07:50:34,0.011,0.0,0.005,0.0
06/03/2022,07:51:25,0.011,0.0,0.005,0.0
06/03/2022,07:52:26,0.010,0.0,0.006,0.001
06/03/2022,07:53:26,0.011,0.0,0.006,0.0
06/03/2022,07:54:25,0.012,0.0,0.006,0.0
06/03/2022,07:55:26,0.015,0.0,0.006,0.0
06/03/2022,07:56:26,0.020,0.0,0.007,0.001
06/03/2022,07:57:25,0.021,0.0,0.007,0.0
06/03/2022,07:58:25,0.022,0.0,0.007,0.0
06/03/2022,07:59:28,0.022,0.0,0.008,0.001
06/03/2022,08:00:26,0.022,0.0,0.008,0.0
06/03/2022,08:01:34,0.022,0.0,0.008,0.0
06/03/2022,08:02:25,0.024,0.0,0.009,0.001
06/03/2022,08:03:26,0.026,0.0,0.009,0.0
06/03/2022,08:04:26,0.025,0.0,0.01,0.001
06/03/2022,08:05:26,0.024,0.0,0.01,0.0
06/03/2022,08:06:28,0.022,0.0,0.01,0.0
06/03/2022,08:07:26,0.022,0.0,0.011,0.001
06/03/2022,08:08:50,0.020,0.0,0.011,0.0
06/03/2022,08:10:26,0.022,0.0,0.012,0.001
06/03/2022,08:11:35,0.023,0.0,0.012,0.0
06/03/2022,08:12:24,0.021,0.0,0.012,0.0
06/03/2022,08:13:26,0.022,0.0,0.013,0.001
06/03/2022,08:14:26,0.022,0.0,0.013,0.0
06/03/2022,08:15:26,0.021,0.0,0.014,0.001
06/03/2022,08:16:40,0.022,0.0,0.014,0.0
06/03/2022,08:18:35,0.020,0.0,0.015,0.001
06/03/2022,08:19:24,0.023,0.0,0.015,0.0
06/03/2022,08:20:26,0.023,0.0,0.015,0.0
06/03/2022,08:21:27,0.022,0.0,0.016,0.001
06/03/2022,08:22:26,0.021,0.0,0.016,0.0
06/03/2022,08:23:26,0.022,0.0,0.016,0.0
06/03/2022,08:24:26,0.022,0.0,0.017,0.001
06/03/2022,08:25:26,0.023,0.0,0.017,0.0
06/03/2022,08:26:26,0.023,0.0,0.018,0.001
06/03/2022,08:27:26,0.022,0.0,0.018,0.0
06/03/2022,08:28:25,0.023,0.0,0.018,0.0
06/03/2022,08:29:34,0.025,0.0,0.019,0.001
06/03/2022,08:30:25,0.027,0.0,0.019,0.0
06/03/2022,08:31:26,0.030,0.0,0.02,0.001
06/03/2022,08:32:26,0.035,0.0,0.02,0.0
06/03/2022,08:33:26,0.035,0.0,0.021,0.001
06/03/2022,08:34:26,0.031,0.0,0.021,0.0
06/03/2022,08:35:26,0.029,0.0,0.022,0.001
06/03/2022,08:36:26,0.028,0.0,0.022,0.0
06/03/2022,08:37:26,0.028,0.0,0.023,0.001
06/03/2022,08:38:25,0.024,0.0,0.023,0.0
06/03/2022,08:39:26,0.028,0.0,0.024,0.001
06/03/2022,08:40:34,0.036,0.0,0.024,0.0
06/03/2022,08:41:25,0.041,0.0,0.025,0.001
06/03/2022,08:42:26,0.044,0.0,0.025,0.0
06/03/2022,08:43:26,0.044,0.0,0.026,0.001
06/03/2022,08:44:26,0.044,0.0,0.027,0.001
06/03/2022,08:45:26,0.053,0.0,0.028,0.001
06/03/2022,08:46:26,0.059,0.0,0.029,0.001
06/03/2022,08:47:26,0.063,0.0,0.03,0.001
06/03/2022,08:48:34,0.060,0.0,0.031,0.001
06/03/2022,08:49:26,0.062,0.0,0.032,0.001
06/03/2022,08:50:26,0.070,0.0,0.033,0.001
06/03/2022,08:51:25,0.072,0.0,0.034,0.001
06/03/2022,08:52:26,0.078,0.0,0.035,0.001
06/03/2022,08:53:26,0.083,0.0,0.037,0.002
06/03/2022,08:54:26,0.088,0.0,0.038,0.001
06/03/2022,08:55:26,0.098,0.0,0.04,0.002
06/03/2022,08:56:26,0.102,0.0,0.041,0.001
06/03/2022,08:57:26,0.104,0.0,0.043,0.002
06/03/2022,08:58:34,0.106,0.0,0.045,0.002
06/03/2022,08:59:26,0.109,0.0,0.047,0.002
06/03/2022,09:00:26,0.112,0.0,0.048,0.001
06/03/2022,09:01:26,0.115,0.0,0.05,0.002
06/03/2022,09:02:28,0.116,0.0,0.052,0.002
06/03/2022,09:03:26,0.118,0.0,0.054,0.002
06/03/2022,09:04:26,0.121,0.0,0.056,0.002
06/03/2022,09:05:25,0.123,0.0,0.058,0.002
06/03/2022,09:06:35,0.126,0.0,0.061,0.003
06/03/2022,09:07:41,0.128,0.0,0.063,0.002
06/03/2022,09:09:26,0.132,0.0,0.067,0.004
06/03/2022,09:10:26,0.126,0.0,0.069,0.002
06/03/2022,09:11:26,0.111,0.0,0.071,0.002
06/03/2022,09:12:26,0.100,0.0,0.073,0.002
06/03/2022,09:13:26,0.094,0.0,0.074,0.001
06/03/2022,09:14:26,0.093,0.0,0.076,0.002
06/03/2022,09:15:26,0.092,0.0,0.077,0.001
06/03/2022,09:22:40,0.103,0.0,0.089,0.012
06/03/2022,09:23:35,0.105,0.0,0.09,0.001
06/03/2022,09:24:26,0.104,0.0,0.092,0.002
06/03/2022,09:25:26,0.107,0.0,0.094,0.002
06/03/2022,09:26:26,0.114,0.0,0.095,0.001
06/03/2022,09:27:26,0.123,0.0,0.097,0.002
06/03/2022,09:28:26,0.138,0.0,0.1,0.003
06/03/2022,09:29:25,0.179,0.0,0.102,0.002
06/03/2022,09:30:35,0.202,0.0,0.106,0.004
06/03/2022,09:31:33,0.232,1.0,0.109,0.003
06/03/2022,09:32:26,0.247,1.0,0.113,0.004
06/03/2022,09:33:26,0.251,1.0,0.117,0.004
06/03/2022,09:34:26,0.251,1.0,0.121,0.004
06/03/2022,09:35:26,0.257,1.0,0.125,0.004
06/03/2022,09:36:26,0.257,1.0,0.13,0.005
06/03/2022,09:37:26,0.252,1.0,0.134,0.004
06/03/2022,09:38:34,0.277,1.0,0.139,0.005
06/03/2022,09:39:26,0.284,1.0,0.143,0.004
06/03/2022,09:40:25,0.287,1.0,0.148,0.005
06/03/2022,09:41:26,0.289,1.0,0.153,0.005
06/03/2022,09:42:26,0.291,1.0,0.157,0.004
06/03/2022,09:43:26,0.261,1.0,0.162,0.005
06/03/2022,09:44:26,0.295,1.0,0.166,0.004
06/03/2022,09:45:26,0.300,1.0,0.171,0.005
06/03/2022,09:46:27,0.269,1.0,0.176,0.005
06/03/2022,09:47:26,0.260,1.0,0.181,0.005
06/03/2022,09:48:26,0.259,1.0,0.185,0.004
06/03/2022,09:49:34,0.263,1.0,0.19,0.005
06/03/2022,09:50:26,0.271,1.0,0.194,0.004
06/03/2022,09:51:26,0.270,1.0,0.199,0.005
06/03/2022,09:52:26,0.267,1.0,0.203,0.004
06/03/2022,09:53:26,0.257,1.0,0.207,0.004
06/03/2022,09:54:26,0.245,1.0,0.212,0.005
06/03/2022,09:55:26,0.231,1.0,0.215,0.003
06/03/2022,09:56:26,0.231,1.0,0.219,0.004
06/03/2022,09:57:26,0.235,1.0,0.223,0.004
06/03/2022,09:58:26,0.240,1.0,0.227,0.004
06/03/2022,09:59:35,0.247,1.0,0.232,0.005
06/03/2022,10:00:26,0.224,1.0,0.235,0.003
06/03/2022,10:01:26,0.217,0.0,0.239,0.004
06/03/2022,10:02:26,0.218,1.0,0.242,0.003
06/03/2022,10:03:26,0.227,1.0,0.246,0.004
06/03/2022,10:04:26,0.236,1.0,0.25,0.004
06/03/2022,10:05:26,0.231,1.0,0.254,0.004
06/03/2022,10:06:26,0.234,1.0,0.258,0.004
06/03/2022,10:07:26,0.257,1.0,0.262,0.004
06/03/2022,10:08:26,0.259,1.0,0.266,0.004
06/03/2022,10:09:26,0.266,1.0,0.271,0.005
06/03/2022,10:10:25,0.254,1.0,0.275,0.004
06/03/2022,10:11:26,0.219,1.0,0.279,0.004
06/03/2022,10:12:26,0.221,1.0,0.283,0.004
06/03/2022,10:13:26,0.233,1.0,0.286,0.003
06/03/2022,10:14:26,0.240,1.0,0.29,0.004
06/03/2022,10:15:26,0.229,1.0,0.294,0.004
06/03/2022,10:16:27,0.227,1.0,0.298,0.004
06/03/2022,10:17:34,0.221,1.0,0.302,0.004
06/03/2022,10:18:26,0.186,0.0,0.305,0.003
06/03/2022,10:19:26,0.152,0.0,0.308,0.003
06/03/2022,10:20:35,0.167,0.0,0.311,0.003
06/03/2022,10:21:26,0.199,0.0,0.314,0.003
06/03/2022,10:22:26,0.195,0.0,0.317,0.003
06/03/2022,10:23:35,0.204,0.0,0.321,0.004
06/03/2022,10:24:26,0.207,0.0,0.324,0.003
06/03/2022,10:25:26,0.210,0.0,0.327,0.003
06/03/2022,10:26:27,0.232,1.0,0.331,0.004
06/03/2022,10:27:26,0.225,1.0,0.335,0.004
06/03/2022,10:28:35,0.198,0.0,0.339,0.004